Погода в Тауранге

Новая Зеландия     37°41′52″S   176°09′29″E
темп.,
°C
ветер,
м/с
пор.,
м/с
влажн.,
%
обл.,
%
осадки,
мм/ч
давл.,
гПа
погр.,
м
26 февраля, пт
пт2601:00+15ю1294100 0.0 102262
04:00+16ю1190100 0.1 102252
07:00+16вюв1296100 0.7 102196
10:00+19всв2286100 0.4 1022482
13:00+21ссв3270100 0.6 1021751
16:00+21ссв3364100 0.1 1019775
19:00+19с2374100 0.1 1019599
22:00+16юв019067 0.0 1020255
27 февраля, сб
сб2701:00+15ю119134 0.0 102179
04:00+15ююз229114 0.0 101958
07:00+14ю12917 0.0 101959
10:00+20всв12660 0.0 1019562
13:00+20ссв33657 0.0 1019751
16:00+20ссв336750 0.0 1016737
19:00+19ссв237268 0.0 1016558
22:00+16вюв1289100 0.0 1017257
28 февраля, вс
вс2801:00+15ю129296 0.1 1017102
04:00+15ююв2395100 0.1 101691
07:00+15ююв1290100 0.1 101688
10:00+19в2469100 0.0 1017552
13:00+21св3461100 0.1 10161014
16:00+20ссв3464100 0.0 1015780
19:00+19св2471100 0.0 1014610
22:00+16в138994 0.0 1016261
1 марта, пн
пн101:00+16всв139089 0.2 1016263
04:00+16всв249273 0.8 1015266
07:00+15вюв239549 1.4 1015167
10:00+18вюв258231 0.1 1015503
13:00+20св346015 0.1 1014827
16:00+20ссв44640 0.0 1012975
19:00+19ссв357510 0.0 1012853
22:00+16св238920 0.1 1014299
2 марта, вт
вт201:00+16св379375 4.7 1013401
04:00+15всв239245 1.1 1011212
07:00+14в239350 1.6 1011253
10:00+17в249270 0.4 1011400
13:00+20св346468 0.6 1009956
16:00+20ссв456716 0.0 1007961
19:00+18ссв258243 0.1 1007446
22:00+16св129490 2.4 1008155